User: anonymous   Login
Location: Ahstedt
(52.2048°N, 10.1060°E)
Time: 16:08:47
(UTC+00:00)
Language:

Timation 1 Rocket - Orbit

View from above orbital plane
View from above orbital plane
View from above satellite
View from above satellite

Ground track
Ground track

The orbit is defined by the following mean orbital elements,

1 02825U          26076.26538789 +.00000000 +00000-0 +81820-4 0 00002
2 02825  69.9701 270.8873 0009643 285.0872  74.9167 13.97710906    07
Epoch (UTC): 17 March 2026 06:22:09
Eccentricity: 0.0009643
inclination: 69.9701°
perigee height: 895 km
apogee height: 909 km
right ascension of ascending node: 270.8873°
argument of perigee: 285.0872°
revolutions per day: 13.97710906
mean anomaly at epoch: 74.9167°

The dashed part of the orbit path shows where the satellite is in the earth's shadow,  

DLR